{"data":{"norad_id":66613,"epoch":"2026-05-24T22:03:07.019136Z","epoch_age_seconds":75176,"freshness":"FRESH","line1":"1 66613U 25270AB  26144.91883124  .00015603  00000+0  57502-3 0  9997","line2":"2 66613  43.0010 345.7263 0000914 252.5904 107.4848 15.27597120 29364","mean_motion":15.2759712,"eccentricity":9.14e-5,"inclination_deg":43.001,"raan_deg":345.7263,"arg_perigee_deg":252.5904,"mean_anomaly_deg":107.4848,"bstar":0.00057502,"rev_number":2936,"period_min":94.26569225268,"perigee_km":482.37072535579,"apogee_km":483.62494080327,"semimajor_km":6861.1348330795,"source":"CELESTRAK","updated_at":"2026-05-25T13:38:21.292718Z"}}